Timeline UpdatesTrip UpdatesNews PostsPvt PostsTravel TipsAdmin PostsConv PostsFollowed PostsChat RequestsBlog PostsPNR Posts

Disclaimer
Search
 
 
Sat Jul 26, 2014 18:39:05 ISTHomeTrainsΣChainsAtlasPNRForumGalleryNewsFAQTripsMembersLoginFeedback
No Recent News for this Train
Other Trains in the News **new
Latest...
ECoR TO CANCEL LOCAL PASSENGER TRAINS IN VIEW OF EXPECTED CYCLONE o­n 12th October 2013. The following trains are: 58417/58418 Puri-Gunupur-Puri passenger
Sat Oct 12, 2013 (09:32AM)
⇐ Return Journey: Train# 58418

58417/Puri Gunupur Passenger (UnReserved)

Aug 04 2013 (5:19PM)
Change Departure Station:
Change Arrival Station:
Post a Train Travel TipPost a Train Travel Tip **new
Post a Comment/Question/Picture/VideoPost a Comment/Question/Picture/Video
Pantry/Catering
✕ NO Pantry Car
✕ NO Catering
Loco/Rake Reversals
KUR/Khurda Road Junction (7);
RSA - Rake Sharing
Rake/Coach Composition
This train will run with 08 coaches i.e. Two Guard cum luggage vans, 05 General Second Class coaches and One Parcel Van.
Loco
News    PNR    Forum    Time-Table    Availability    Fare Chart    Map    Arr/Dep History    Trips    Gallery    ΣChains    X/O    Timeline    
Travel Time: 1h 20m    9 halts    Distance: 44 km    Avg Speed: 33 km/hr
Type: Passenger
Zone: ECoR/East Coast
Departs @ 08:30
Platform# ???
SMTWTFS
Puri/PURI 
Arrives @ 09:50
Platform# ???
SMTWTFS
Khurda Road Junction/KUR 

9 halts. 9 intermediate Stations between Puri and Khurda Road Junction

Show ALL intermediate Stations  Show Old Time-Table

#CodeStation NameX/OArrivesAvgDepartsAvgHaltPFDay#KmSpeedElevZoneAddress
1PURI»Puri (5)»  -08:30---10.03712mECoRPuri, Odisha
2MLTMalatipatpur (1)X  08:42-08:44-2m117.34615mECoRPuri, Odisha
3JKDPJankidaipur  08:48-08:49-1m--110.46013mECoRChandanpur, Odisha
4SILSakhi Gopal (3)X  08:55-08:56-1m--116.46710mECoRPuri, Odisha
5BRSTBir Purushottampur  09:01-09:02-1m--122.04512mECoRSatasankha, Odisha
6JPRDJenapur Road  09:07-09:08-1m--125.73610mECoRKhordha, Odisha
7DEGDelang  09:13-09:14-1m--128.7449mECoRKhordha, Odisha
8KASRKanas RoadX  09:19-09:20-1m--132.4429mECoRKhordha, Odisha
9MWQMotari Halt  09:25-09:26-1m--135.94612mECoRMotari, Odisha
10HPGMHaripur GramX  09:33-09:34-1m--141.31022mECoRKhordha, Odisha
11KUR•Khurda Road Junction (7)•X09:50-10:10-20m--143.95325mECoRKhordha, Odisha
12ARGLArgul P.H.  10:16-10:17-1m--149.24024mECoRKhordha, Odisha
13KPXRKaipadar RoadX  10:23-10:24-1m--153.26822mECoRKaipada Road, Odisha
14DLMHDhaulimuhanX  10:28-10:29-1m--157.74621mECoRKhordha, Odisha
15TAPTapangX  10:34-10:35-1m--161.67215mECoRKhordha, Odisha
16GLBAGolabaiO  10:39-10:40-1m--166.44813mECoRKhordha, Odisha
17NKPNirakarpurX  10:45-10:46-1m--170.37121mECoRNirakarpur, Odisha
18BSDPBhusandpur  10:52-10:53-1m--177.46620mECoRBhushandapur, Odisha
19MKTPMuketashwar  10:58-10:59-1m--182.95213mECoRKhordha, Odisha
20KAPGKalupara GhatX  11:04-11:05-1m--187.36710mECoRChandeswar, Odisha
21KUUKuhuri  11:11-11:12-1m--194.06826mECoRKhordha, Odisha
22GNGDGangadharpur  11:19-11:20-1m--1102.06222mECoRKhordha, Odisha
23SLZSolari  11:25-11:26-1m--1107.15218mECoRSolari, Odisha
24BALUBalugaon (3)X  11:35-11:40-5m--1115.07211mECoR752030, Odisha
25CLKAChilka  11:46-11:47-1m--1122.27725mECoRBarkul, Odisha
26KLJIKalijai  11:51-11:52-1m--1127.45811mECoRGarh, Odisha
27KITKhallikot (3)X  11:57-11:58-1m--1132.27513mECoRKhallikot, Odisha
28RBARambha  12:07-12:08-1m--1143.47414mECoRGanjam District, Odisha
29HMAHumma  12:17-12:18-1m--1154.47519mECoRGanjam District, Odisha
30GAMGanjam  12:23-12:24-1m--1160.7608mECoRGanjam, Odisha
31CAPCChatrapur Court (2)  12:32-12:33-1m--1168.71432mECoRChatrapur, Odisha
32CAPChatrapurX  12:37-12:42-5m--1169.63736mECoRChatrapur, Odisha
33NRSPNarasimhapuraX  12:48-12:49-1m--1173.310850mECoRGanjam, Odisha
34JNPJagan Nathapur  12:54-12:55-1m--1182.35229mECoRBerhampur, Odisha
35BAMBrahmapur (3)  13:05-13:15-10m21191.07127mECoRBerhampur, Odisha
36GTAGolanthra  13:24-13:25-1m--1201.75328mECoRGanjam, Odisha
37SLRDSurla Road  13:31-13:33-2m--1207.16318mECoRGanjam, Odisha
38IPMIchchapuram  13:41-13:42-1m--1215.57921mECoRIchchapuram, Andhra Pradesh
39JPIJhadupudi  13:51-13:52-1m--1227.37538mECoRSrikakulam, Andhra Pradesh
40SPTSompeta (4)X  13:57-13:58-1m--1233.56348mECoRKanchili, Andhra Pradesh
41BAVBaruva  14:07-14:08-1m--1242.98117mECoRSrikakulam, Andhra Pradesh
42MMSMandasa Road  14:15-14:16-1m--1252.35638mECoRSrikakulam, Andhra Pradesh
43SUDVSummadeviX  14:23-14:24-1m--1258.8658mECoRSummadevi, Andhra Pradesh
44PSAPalasa (3)O  15:25-16:00-35m31265.46131mECoRKasibugga, Andhra Pradesh
45PUNPundiX  16:12-16:14-2m--1277.65438mECoRSrikakulam, Andhra Pradesh
46RMZRouthpuram HaltX  16:21-16:22-1m--1283.93312mECoRSrikakulam, Andhra Pradesh
47NWPNaupada Junction  16:35-16:45-10m--1291.13913mECoRNuapada . ph.no. 08945-249728, Andhra Pradesh
48TEKTekkali Halt  16:55-16:56-1m--1297.73436mECoRTekkali, Andhra Pradesh
49PDSNPeddasana  17:05-17:06-1m--1302.84226mECoRNational Highway 5, Andhra Pradesh
50TMBTemburu  17:19-17:20-1m--1311.93276mECoRParalakhemundi, Andhra Pradesh
51GVAGanguwada  17:28-17:29-1m--1316.24278mECoRGanguwada, Andhra Pradesh
52PHMPatapatnam  17:43-17:44-1m--1326.01668mECoRSrikakulam District, Andhra Pradesh
53PLHParlakhemundi (1)  18:00-18:02-2m11330.43760mECoRParalakhemundi, Odisha
54SPRMSitapuram Halt  18:22-18:23-1m--1342.83258mECoRParalakhemundi, Odisha
55HBFHadobhangi Halt  18:31-18:32-1m--1347.23968mECoRParalakhemundi, Odisha
56KNGRKashinagar Halt  18:45-18:46-1m--1355.63762mECoRKashinagar, Odisha
57LRILihuri Halt  18:57-18:58-1m--1362.43969mECoRAcross River Vamsadhara, Odisha
58BSDRBansadhara Halt  19:09-19:10-1m--1369.53678mECoRBansadhara Halt Railway Station, Odisha
59PLSGPalasingi  19:19-19:20-1m--1374.81587mECoRDistt Gajapati, Odisha
60GNPRGunupur  19:45----1381.2-92mECoRGunupur, Odisha
Scroll to Top
Scroll to Bottom